Time,TemperatureF,DewpointF,PressureIn,WindDirection,WindDirectionDegrees,WindSpeedMPH,WindSpeedGustMPH,Humidity,HourlyPrecipIn,Conditions,Clouds,dailyrainin,SoftwareType,DateUTC
2013-06-15 00:02:00,47.9,24.0,23.36,SSW,203,0.9,1.8,39,0.00,,,0.00,WUHU216HW,2013-06-15 06:02:00,
2013-06-15 00:07:00,47.7,24.6,23.35,SSW,203,0.4,1.8,40,0.00,,,0.00,WUHU216HW,2013-06-15 06:07:00,
2013-06-15 00:12:00,47.5,23.7,23.35,SSW,203,1.8,1.8,39,0.00,,,0.00,WUHU216HW,2013-06-15 06:12:00,
2013-06-15 00:17:00,47.5,24.4,23.35,SSW,203,1.1,1.8,40,0.00,,,0.00,WUHU216HW,2013-06-15 06:17:00,
2013-06-15 00:22:00,47.2,24.0,23.35,SSW,203,0.4,1.3,40,0.00,,,0.00,WUHU216HW,2013-06-15 06:22:00,
2013-06-15 00:27:00,47.2,24.0,23.35,SSW,203,0.0,1.8,40,0.00,,,0.00,WUHU216HW,2013-06-15 06:27:00,
2013-06-15 00:32:00,47.2,24.0,23.35,SSW,203,0.7,1.8,40,0.00,,,0.00,WUHU216HW,2013-06-15 06:32:00,
2013-06-15 00:37:00,47.2,24.6,23.35,SSW,203,1.1,1.1,41,0.00,,,0.00,WUHU216HW,2013-06-15 06:37:00,
2013-06-15 00:42:00,47.0,23.9,23.35,ESE,113,0.4,1.1,40,0.00,,,0.00,WUHU216HW,2013-06-15 06:42:00,
2013-06-15 00:47:00,47.0,24.4,23.35,SSW,203,1.1,1.3,41,0.00,,,0.00,WUHU216HW,2013-06-15 06:47:00,
2013-06-15 00:52:00,46.6,24.7,23.35,South,180,0.2,1.8,42,0.00,,,0.00,WUHU216HW,2013-06-15 06:52:00,
2013-06-15 00:57:00,46.4,23.9,23.35,South,180,0.4,1.8,41,0.00,,,0.00,WUHU216HW,2013-06-15 06:57:00,
2013-06-15 01:02:00,46.4,24.5,23.34,SSW,203,0.9,1.3,42,0.00,,,0.00,WUHU216HW,2013-06-15 07:02:00,
2013-06-15 01:07:00,46.4,23.9,23.34,SSW,203,0.0,1.3,41,0.00,,,0.00,WUHU216HW,2013-06-15 07:07:00,
2013-06-15 01:12:00,46.4,23.4,23.34,SSW,203,0.4,0.9,40,0.00,,,0.00,WUHU216HW,2013-06-15 07:12:00,
2013-06-15 01:17:00,46.4,23.9,23.34,South,180,1.8,1.8,41,0.00,,,0.00,WUHU216HW,2013-06-15 07:17:00,
2013-06-15 01:22:00,46.4,23.9,23.34,SSW,203,1.8,1.8,41,0.00,,,0.00,WUHU216HW,2013-06-15 07:22:00,
2013-06-15 01:27:00,46.3,23.8,23.34,SSW,203,0.7,1.8,41,0.00,,,0.00,WUHU216HW,2013-06-15 07:27:00,
2013-06-15 01:32:00,46.3,23.8,23.34,SSW,203,0.7,1.6,41,0.00,,,0.00,WUHU216HW,2013-06-15 07:32:00,
2013-06-15 01:37:00,46.3,23.8,23.34,SSW,203,0.4,1.6,41,0.00,,,0.00,WUHU216HW,2013-06-15 07:37:00,
2013-06-15 01:42:00,46.3,23.8,23.34,SSW,203,0.7,1.6,41,0.00,,,0.00,WUHU216HW,2013-06-15 07:42:00,
2013-06-15 01:47:00,46.1,23.6,23.34,SSW,203,0.7,1.1,41,0.00,,,0.00,WUHU216HW,2013-06-15 07:47:00,
2013-06-15 01:52:00,45.9,24.0,23.34,SSW,203,1.6,1.6,42,0.00,,,0.00,WUHU216HW,2013-06-15 07:52:00,
2013-06-15 01:57:00,45.7,23.3,23.33,SSW,203,0.9,1.6,41,0.00,,,0.00,WUHU216HW,2013-06-15 07:57:00,
2013-06-15 02:02:00,45.5,23.7,23.33,SSW,203,0.7,1.1,42,0.00,,,0.00,WUHU216HW,2013-06-15 08:02:00,
2013-06-15 02:07:00,45.5,23.1,23.33,SW,225,1.1,1.1,41,0.00,,,0.00,WUHU216HW,2013-06-15 08:07:00,
2013-06-15 02:12:00,45.7,23.3,23.33,SSW,203,2.5,3.4,41,0.00,,,0.00,WUHU216HW,2013-06-15 08:12:00,
2013-06-15 02:17:00,45.7,23.3,23.33,SW,225,1.6,3.4,41,0.00,,,0.00,WUHU216HW,2013-06-15 08:17:00,
2013-06-15 02:22:00,45.7,23.3,23.33,SSW,203,1.6,2.5,41,0.00,,,0.00,WUHU216HW,2013-06-15 08:22:00,
2013-06-15 02:27:00,45.5,23.7,23.33,WSW,248,0.7,2.5,42,0.00,,,0.00,WUHU216HW,2013-06-15 08:27:00,
2013-06-15 02:32:00,45.2,23.9,23.33,SSW,203,0.7,1.8,43,0.00,,,0.00,WUHU216HW,2013-06-15 08:32:00,
2013-06-15 02:37:00,45.0,23.2,23.33,SSW,203,0.0,1.1,42,0.00,,,0.00,WUHU216HW,2013-06-15 08:37:00,
2013-06-15 02:42:00,44.8,23.1,23.33,SSW,203,0.0,1.1,42,0.00,,,0.00,WUHU216HW,2013-06-15 08:42:00,
2013-06-15 02:47:00,44.6,23.4,23.33,SSW,203,0.4,1.1,43,0.00,,,0.00,WUHU216HW,2013-06-15 08:47:00,
2013-06-15 02:52:00,44.5,23.2,23.33,SSW,203,0.4,1.3,43,0.00,,,0.00,WUHU216HW,2013-06-15 08:52:00,
2013-06-15 02:57:00,44.3,23.0,23.33,SSW,203,0.2,1.6,43,0.00,,,0.00,WUHU216HW,2013-06-15 08:57:00,
2013-06-15 03:02:00,44.3,23.0,23.33,SSE,158,1.1,1.6,43,0.00,,,0.00,WUHU216HW,2013-06-15 09:02:00,
2013-06-15 03:07:00,44.3,23.0,23.33,SSW,203,0.4,1.1,43,0.00,,,0.00,WUHU216HW,2013-06-15 09:07:00,
2013-06-15 03:12:00,44.3,23.0,23.33,SW,225,0.2,1.1,43,0.00,,,0.00,WUHU216HW,2013-06-15 09:12:00,
2013-06-15 03:17:00,44.1,23.0,23.33,SSW,203,0.4,1.1,43,0.00,,,0.00,WUHU216HW,2013-06-15 09:17:00,
2013-06-15 03:22:00,43.9,23.3,23.33,SSW,203,1.1,1.1,44,0.00,,,0.00,WUHU216HW,2013-06-15 09:22:00,
2013-06-15 03:27:00,43.7,23.1,23.33,SSW,203,0.2,1.1,44,0.00,,,0.00,WUHU216HW,2013-06-15 09:27:00,
2013-06-15 03:32:00,43.6,23.0,23.33,SSW,203,0.0,0.9,44,0.00,,,0.00,WUHU216HW,2013-06-15 09:32:00,
2013-06-15 03:37:00,43.4,22.8,23.33,SSW,203,0.0,0.9,44,0.00,,,0.00,WUHU216HW,2013-06-15 09:37:00,
2013-06-15 03:42:00,43.4,22.8,23.33,ESE,113,0.0,0.9,44,0.00,,,0.00,WUHU216HW,2013-06-15 09:42:00,
2013-06-15 03:47:00,43.4,22.8,23.33,SW,225,0.0,0.7,44,0.00,,,0.00,WUHU216HW,2013-06-15 09:47:00,
2013-06-15 03:52:00,43.2,22.7,23.32,SSW,203,0.0,0.4,44,0.00,,,0.00,WUHU216HW,2013-06-15 09:52:00,
2013-06-15 03:57:00,43.2,22.7,23.32,SSW,203,0.0,0.9,44,0.00,,,0.00,WUHU216HW,2013-06-15 09:57:00,
2013-06-15 04:02:00,43.4,22.8,23.33,East,90,0.0,0.9,44,0.00,,,0.00,WUHU216HW,2013-06-15 10:02:00,
2013-06-15 04:07:00,43.4,22.8,23.33,South,180,0.0,0.2,44,0.00,,,0.00,WUHU216HW,2013-06-15 10:07:00,
2013-06-15 04:12:00,43.6,23.0,23.33,SSE,158,0.0,0.4,44,0.00,,,0.00,WUHU216HW,2013-06-15 10:12:00,
2013-06-15 04:17:00,43.6,23.0,23.33,SSE,158,0.0,0.4,44,0.00,,,0.00,WUHU216HW,2013-06-15 10:17:00,
2013-06-15 04:22:00,43.4,22.8,23.33,ESE,113,0.0,0.9,44,0.00,,,0.00,WUHU216HW,2013-06-15 10:22:00,
2013-06-15 04:27:00,43.4,22.8,23.33,SSE,158,0.4,0.9,44,0.00,,,0.00,WUHU216HW,2013-06-15 10:27:00,
2013-06-15 04:32:00,43.2,22.7,23.33,SSE,158,0.2,0.4,44,0.00,,,0.00,WUHU216HW,2013-06-15 10:32:00,
2013-06-15 04:37:00,43.2,22.7,23.33,SSE,158,1.6,1.6,44,0.00,,,0.00,WUHU216HW,2013-06-15 10:37:00,
2013-06-15 04:42:00,43.0,22.5,23.33,SSW,203,0.0,1.6,44,0.00,,,0.00,WUHU216HW,2013-06-15 10:42:00,
2013-06-15 04:47:00,42.8,22.9,23.33,SSW,203,0.0,0.4,45,0.00,,,0.00,WUHU216HW,2013-06-15 10:47:00,
2013-06-15 04:52:00,42.7,22.7,23.33,SSW,203,0.9,1.1,45,0.00,,,0.00,WUHU216HW,2013-06-15 10:52:00,
2013-06-15 04:57:00,42.5,22.5,23.33,SSW,203,0.0,1.1,45,0.00,,,0.00,WUHU216HW,2013-06-15 10:57:00,
2013-06-15 05:02:00,42.5,22.5,23.33,SW,225,0.4,1.6,45,0.00,,,0.00,WUHU216HW,2013-06-15 11:02:00,
2013-06-15 05:07:00,42.5,23.0,23.33,SW,225,0.4,1.6,46,0.00,,,0.00,WUHU216HW,2013-06-15 11:07:00,
2013-06-15 05:12:00,42.3,22.3,23.33,SSW,203,0.0,1.1,45,0.00,,,0.00,WUHU216HW,2013-06-15 11:12:00,
2013-06-15 05:17:00,42.3,22.9,23.33,SSW,203,0.0,0.9,46,0.00,,,0.00,WUHU216HW,2013-06-15 11:17:00,
2013-06-15 05:22:00,42.3,22.3,23.33,SSW,203,0.0,1.1,45,0.00,,,0.00,WUHU216HW,2013-06-15 11:22:00,
2013-06-15 05:27:00,42.3,22.3,23.33,SSW,203,0.0,1.1,45,0.00,,,0.00,WUHU216HW,2013-06-15 11:27:00,
2013-06-15 05:32:00,42.3,22.3,23.34,South,180,0.4,0.4,45,0.00,,,0.00,WUHU216HW,2013-06-15 11:32:00,
2013-06-15 05:37:00,42.1,22.7,23.34,East,90,0.0,0.4,46,0.00,,,0.00,WUHU216HW,2013-06-15 11:37:00,
2013-06-15 05:42:00,41.8,22.9,23.34,ESE,113,0.0,0.4,47,0.00,,,0.00,WUHU216HW,2013-06-15 11:42:00,
2013-06-15 05:47:00,41.2,22.9,23.34,South,180,0.0,0.9,48,0.00,,,0.00,WUHU216HW,2013-06-15 11:47:00,
2013-06-15 05:52:00,40.9,23.0,23.34,South,180,0.0,0.9,49,0.00,,,0.00,WUHU216HW,2013-06-15 11:52:00,
2013-06-15 05:57:00,40.5,22.8,23.34,SSE,158,0.0,1.1,49,0.00,,,0.00,WUHU216HW,2013-06-15 11:57:00,
2013-06-15 06:02:00,40.3,22.6,23.34,SSW,203,0.0,1.1,49,0.00,,,0.00,WUHU216HW,2013-06-15 12:02:00,
2013-06-15 06:07:00,40.3,22.6,23.34,SSW,203,0.0,0.7,49,0.00,,,0.00,WUHU216HW,2013-06-15 12:07:00,
2013-06-15 06:12:00,40.3,22.6,23.34,SSW,203,0.2,0.2,49,0.00,,,0.00,WUHU216HW,2013-06-15 12:12:00,
2013-06-15 06:17:00,40.3,22.6,23.34,SSE,158,0.0,0.2,49,0.00,,,0.00,WUHU216HW,2013-06-15 12:17:00,
2013-06-15 06:22:00,40.7,23.4,23.34,SSE,158,0.0,0.2,50,0.00,,,0.00,WUHU216HW,2013-06-15 12:22:00,
2013-06-15 06:27:00,41.0,23.8,23.34,SE,135,0.4,0.4,50,0.00,,,0.00,WUHU216HW,2013-06-15 12:27:00,
2013-06-15 06:32:00,41.4,23.6,23.34,ESE,113,0.4,0.7,49,0.00,,,0.00,WUHU216HW,2013-06-15 12:32:00,
2013-06-15 06:37:00,42.1,24.3,23.34,ESE,113,0.4,0.7,49,0.00,,,0.00,WUHU216HW,2013-06-15 12:37:00,
2013-06-15 06:42:00,42.5,25.7,23.34,East,90,1.1,1.1,51,0.00,,,0.00,WUHU216HW,2013-06-15 12:42:00,
2013-06-15 06:47:00,42.8,25.6,23.34,ENE,68,1.1,1.1,50,0.00,,,0.00,WUHU216HW,2013-06-15 12:47:00,
2013-06-15 06:52:00,43.2,25.4,23.35,ENE,68,1.1,1.8,49,0.00,,,0.00,WUHU216HW,2013-06-15 12:52:00,
2013-06-15 06:57:00,43.2,25.4,23.34,East,90,0.9,1.8,49,0.00,,,0.00,WUHU216HW,2013-06-15 12:57:00,
2013-06-15 07:02:00,43.4,26.0,23.35,ENE,68,1.1,1.6,50,0.00,,,0.00,WUHU216HW,2013-06-15 13:02:00,
2013-06-15 07:07:00,43.6,26.2,23.35,ENE,68,0.4,1.8,50,0.00,,,0.00,WUHU216HW,2013-06-15 13:07:00,
2013-06-15 07:12:00,44.1,26.7,23.34,ENE,68,1.1,1.8,50,0.00,,,0.00,WUHU216HW,2013-06-15 13:12:00,
2013-06-15 07:17:00,44.5,27.0,23.35,ENE,68,0.4,1.3,50,0.00,,,0.00,WUHU216HW,2013-06-15 13:17:00,
2013-06-15 07:22:00,45.0,28.0,23.34,ENE,68,1.6,1.6,51,0.00,,,0.00,WUHU216HW,2013-06-15 13:22:00,
2013-06-15 07:27:00,45.5,28.4,23.34,NE,45,2.5,2.5,51,0.00,,,0.00,WUHU216HW,2013-06-15 13:27:00,
2013-06-15 07:32:00,45.7,28.2,23.34,NE,45,1.6,2.5,50,0.00,,,0.00,WUHU216HW,2013-06-15 13:32:00,
2013-06-15 07:37:00,45.7,28.6,23.34,NE,45,1.8,2.5,51,0.00,,,0.00,WUHU216HW,2013-06-15 13:37:00,
2013-06-15 07:42:00,45.7,28.6,23.35,ENE,68,2.5,2.5,51,0.00,,,0.00,WUHU216HW,2013-06-15 13:42:00,
2013-06-15 07:47:00,45.7,29.1,23.35,ENE,68,1.6,2.5,52,0.00,,,0.00,WUHU216HW,2013-06-15 13:47:00,
2013-06-15 07:52:00,45.9,29.3,23.35,NE,45,1.3,2.5,52,0.00,,,0.00,WUHU216HW,2013-06-15 13:52:00,
2013-06-15 07:57:00,46.3,30.0,23.35,NE,45,2.5,2.5,53,0.00,,,0.00,WUHU216HW,2013-06-15 13:57:00,
2013-06-15 08:02:00,46.8,30.5,23.35,ENE,68,1.1,2.5,53,0.00,,,0.00,WUHU216HW,2013-06-15 14:02:00,
2013-06-15 08:07:00,47.7,30.9,23.35,ENE,68,1.3,2.2,52,0.00,,,0.00,WUHU216HW,2013-06-15 14:07:00,
2013-06-15 08:12:00,48.1,31.2,23.35,ENE,68,1.1,2.2,52,0.00,,,0.00,WUHU216HW,2013-06-15 14:12:00,
2013-06-15 08:17:00,48.4,31.1,23.35,East,90,2.2,2.2,51,0.00,,,0.00,WUHU216HW,2013-06-15 14:17:00,
2013-06-15 08:22:00,48.8,31.4,23.35,ENE,68,1.3,2.2,51,0.00,,,0.00,WUHU216HW,2013-06-15 14:22:00,
2013-06-15 08:27:00,49.1,31.8,23.34,ENE,68,1.6,1.8,51,0.00,,,0.00,WUHU216HW,2013-06-15 14:27:00,
2013-06-15 08:32:00,49.3,31.5,23.34,NE,45,2.2,2.7,50,0.00,,,0.00,WUHU216HW,2013-06-15 14:32:00,
2013-06-15 08:37:00,49.5,31.2,23.34,NE,45,2.9,2.9,49,0.00,,,0.00,WUHU216HW,2013-06-15 14:37:00,
2013-06-15 08:42:00,49.7,30.3,23.34,NE,45,2.5,4.0,47,0.00,,,0.00,WUHU216HW,2013-06-15 14:42:00,
2013-06-15 08:47:00,50.0,29.4,23.34,NE,45,4.0,4.0,45,0.00,,,0.00,WUHU216HW,2013-06-15 14:47:00,
2013-06-15 08:52:00,50.4,29.2,23.34,ENE,68,4.0,4.5,44,0.00,,,0.00,WUHU216HW,2013-06-15 14:52:00,
2013-06-15 08:57:00,50.8,29.0,23.34,NNE,23,2.7,4.5,43,0.00,,,0.00,WUHU216HW,2013-06-15 14:57:00,
2013-06-15 09:02:00,50.9,28.5,23.34,ENE,68,2.9,4.0,42,0.00,,,0.00,WUHU216HW,2013-06-15 15:02:00,
2013-06-15 09:07:00,51.3,29.4,23.34,NE,45,2.9,4.0,43,0.00,,,0.00,WUHU216HW,2013-06-15 15:07:00,
2013-06-15 09:12:00,51.5,29.6,23.34,ENE,68,2.5,3.1,43,0.00,,,0.00,WUHU216HW,2013-06-15 15:12:00,
2013-06-15 09:17:00,52.0,29.5,23.34,NE,45,1.3,3.6,42,0.00,,,0.00,WUHU216HW,2013-06-15 15:17:00,
2013-06-15 09:22:00,52.4,29.4,23.34,NNE,23,2.0,3.6,41,0.00,,,0.00,WUHU216HW,2013-06-15 15:22:00,
2013-06-15 09:27:00,52.6,28.9,23.34,ENE,68,2.9,3.4,40,0.00,,,0.00,WUHU216HW,2013-06-15 15:27:00,
2013-06-15 09:32:00,52.9,29.8,23.34,NE,45,3.4,3.4,41,0.00,,,0.00,WUHU216HW,2013-06-15 15:32:00,
2013-06-15 09:37:00,53.1,30.0,23.34,ENE,68,2.2,3.4,41,0.00,,,0.00,WUHU216HW,2013-06-15 15:37:00,
2013-06-15 09:42:00,53.6,30.4,23.34,East,90,0.9,2.9,41,0.00,,,0.00,WUHU216HW,2013-06-15 15:42:00,
2013-06-15 09:47:00,54.2,31.0,23.34,NE,45,3.4,3.4,41,0.00,,,0.00,WUHU216HW,2013-06-15 15:47:00,
2013-06-15 09:52:00,54.2,30.3,23.34,NE,45,2.0,3.4,40,0.00,,,0.00,WUHU216HW,2013-06-15 15:52:00,
2013-06-15 09:57:00,54.4,29.9,23.34,East,90,3.4,3.4,39,0.00,,,0.00,WUHU216HW,2013-06-15 15:57:00,
2013-06-15 10:02:00,54.7,32.0,23.34,NE,45,3.4,3.4,42,0.00,,,0.00,WUHU216HW,2013-06-15 16:02:00,
2013-06-15 10:07:00,55.3,31.9,23.34,ENE,68,2.5,3.4,41,0.00,,,0.00,WUHU216HW,2013-06-15 16:07:00,
2013-06-15 10:12:00,55.8,31.9,23.34,ENE,68,1.8,4.0,40,0.00,,,0.00,WUHU216HW,2013-06-15 16:12:00,
2013-06-15 10:17:00,56.0,32.0,23.34,ENE,68,3.8,4.3,40,0.00,,,0.00,WUHU216HW,2013-06-15 16:17:00,
2013-06-15 10:22:00,56.2,32.1,23.34,ENE,68,2.5,4.3,40,0.00,,,0.00,WUHU216HW,2013-06-15 16:22:00,
2013-06-15 10:27:00,56.5,32.5,23.34,ENE,68,4.0,4.0,40,0.00,,,0.00,WUHU216HW,2013-06-15 16:27:00,
2013-06-15 10:32:00,57.2,34.3,23.34,NE,45,2.0,4.0,42,0.00,,,0.00,WUHU216HW,2013-06-15 16:32:00,
2013-06-15 10:37:00,57.6,33.5,23.34,East,90,1.6,3.8,40,0.00,,,0.00,WUHU216HW,2013-06-15 16:37:00,
2013-06-15 10:42:00,58.0,34.4,23.34,ENE,68,1.8,3.6,41,0.00,,,0.00,WUHU216HW,2013-06-15 16:42:00,
2013-06-15 10:47:00,58.3,34.1,23.34,NE,45,2.0,2.7,40,0.00,,,0.00,WUHU216HW,2013-06-15 16:47:00,
2013-06-15 10:52:00,58.7,34.4,23.34,ENE,68,4.3,4.3,40,0.00,,,0.00,WUHU216HW,2013-06-15 16:52:00,
2013-06-15 10:57:00,59.4,35.6,23.34,NE,45,2.2,4.3,41,0.00,,,0.00,WUHU216HW,2013-06-15 16:57:00,
2013-06-15 11:02:00,59.8,34.7,23.34,NE,45,2.0,2.5,39,0.00,,,0.00,WUHU216HW,2013-06-15 17:02:00,
2013-06-15 11:07:00,60.3,35.2,23.34,ENE,68,2.2,3.8,39,0.00,,,0.00,WUHU216HW,2013-06-15 17:07:00,
2013-06-15 11:12:00,60.8,34.9,23.34,East,90,0.0,3.8,38,0.00,,,0.00,WUHU216HW,2013-06-15 17:12:00,
2013-06-15 11:17:00,61.2,34.6,23.34,NE,45,1.8,3.8,37,0.00,,,0.00,WUHU216HW,2013-06-15 17:17:00,
2013-06-15 11:22:00,61.2,34.6,23.33,NE,45,1.8,3.8,37,0.00,,,0.00,WUHU216HW,2013-06-15 17:22:00,
2013-06-15 11:27:00,61.4,35.4,23.34,NNE,23,2.7,2.7,38,0.00,,,0.00,WUHU216HW,2013-06-15 17:27:00,
2013-06-15 11:32:00,61.7,34.3,23.34,ENE,68,1.1,3.4,36,0.00,,,0.00,WUHU216HW,2013-06-15 17:32:00,
2013-06-15 11:37:00,62.1,34.7,23.33,ENE,68,1.6,3.4,36,0.00,,,0.00,WUHU216HW,2013-06-15 17:37:00,
2013-06-15 11:42:00,62.3,34.7,23.34,NE,45,1.8,2.2,36,0.00,,,0.00,WUHU216HW,2013-06-15 17:42:00,
2013-06-15 11:47:00,62.5,34.9,23.34,NNE,23,1.8,2.5,36,0.00,,,0.00,WUHU216HW,2013-06-15 17:47:00,
2013-06-15 11:52:00,63.0,34.8,23.33,NE,45,1.3,2.5,35,0.00,,,0.00,WUHU216HW,2013-06-15 17:52:00,
2013-06-15 11:57:00,63.5,33.8,23.33,NNE,23,2.5,2.5,33,0.00,,,0.00,WUHU216HW,2013-06-15 17:57:00,
2013-06-15 12:02:00,63.7,33.9,23.33,NE,45,2.5,3.1,33,0.00,,,0.00,WUHU216HW,2013-06-15 18:02:00,
2013-06-15 12:07:00,64.1,34.2,23.33,NE,45,2.5,3.8,33,0.00,,,0.00,WUHU216HW,2013-06-15 18:07:00,
2013-06-15 12:12:00,64.4,35.3,23.33,SW,225,0.7,3.8,34,0.00,,,0.00,WUHU216HW,2013-06-15 18:12:00,
2013-06-15 12:17:00,65.0,37.2,23.33,ENE,68,2.0,3.4,36,0.00,,,0.00,WUHU216HW,2013-06-15 18:17:00,
2013-06-15 12:22:00,65.7,36.5,23.33,West,270,1.3,2.7,34,0.00,,,0.00,WUHU216HW,2013-06-15 18:22:00,
2013-06-15 12:27:00,66.2,36.9,23.33,WSW,248,0.9,3.8,34,0.00,,,0.00,WUHU216HW,2013-06-15 18:27:00,
2013-06-15 12:32:00,66.8,38.8,23.33,WSW,248,0.7,3.8,36,0.00,,,0.00,WUHU216HW,2013-06-15 18:32:00,
2013-06-15 12:37:00,67.5,38.7,23.33,WNW,293,4.3,4.3,35,0.00,,,0.00,WUHU216HW,2013-06-15 18:37:00,
2013-06-15 12:42:00,68.0,39.2,23.33,NNW,338,0.7,4.7,35,0.00,,,0.00,WUHU216HW,2013-06-15 18:42:00,
2013-06-15 12:47:00,68.8,39.8,23.33,NW,315,0.9,4.7,35,0.00,,,0.00,WUHU216HW,2013-06-15 18:47:00,
2013-06-15 12:52:00,69.1,39.4,23.33,WNW,293,1.8,2.2,34,0.00,,,0.00,WUHU216HW,2013-06-15 18:52:00,
2013-06-15 12:57:00,69.1,39.4,23.33,NW,315,1.8,2.2,34,0.00,,,0.00,WUHU216HW,2013-06-15 18:57:00,
2013-06-15 13:02:00,68.9,38.5,23.33,WNW,293,4.7,4.7,33,0.00,,,0.00,WUHU216HW,2013-06-15 19:02:00,
2013-06-15 13:07:00,68.4,38.7,23.33,SW,225,3.4,4.7,34,0.00,,,0.00,WUHU216HW,2013-06-15 19:07:00,
2013-06-15 13:12:00,68.0,39.2,23.33,West,270,2.9,3.4,35,0.00,,,0.00,WUHU216HW,2013-06-15 19:12:00,
2013-06-15 13:17:00,68.2,38.6,23.33,WNW,293,3.4,6.3,34,0.00,,,0.00,WUHU216HW,2013-06-15 19:17:00,
2013-06-15 13:22:00,68.4,38.7,23.33,South,180,2.5,6.3,34,0.00,,,0.00,WUHU216HW,2013-06-15 19:22:00,
2013-06-15 13:27:00,68.4,38.7,23.33,NW,315,2.0,4.0,34,0.00,,,0.00,WUHU216HW,2013-06-15 19:27:00,
2013-06-15 13:32:00,68.6,38.9,23.33,ENE,68,1.8,3.1,34,0.00,,,0.00,WUHU216HW,2013-06-15 19:32:00,
2013-06-15 13:37:00,68.8,39.1,23.33,West,270,1.1,3.1,34,0.00,,,0.00,WUHU216HW,2013-06-15 19:37:00,
2013-06-15 13:41:00,69.1,39.4,23.33,NNW,338,1.1,4.7,34,0.00,,,0.00,WUHU216HW,2013-06-15 19:41:00,